Simultaneous Nadir Overpasses (SNOs) Predictions

Prediction of SNOs between NPP and TERRA Satellite Orbit:

Table of predicted SNOs for the next 14.0 days since TLE Epoch: 3/15/2014
Index Date (NPP) Time (NPP) Lat,Lon (NPP) SZA (NPP ) Date (TERRA) Time (TERRA) Lat,Lon (TERRA) SZA (TERRA ) Distance(km) Time Diff (sec)
1 03/15/2014 15:54:03 68.85, -59.69 70.77 03/15/2014 15:55:13 68.85, -59.52 70.76 7.01 70
2 03/15/2014 16:44:43 -68.65, 107.89 109.46 03/15/2014 16:44:45 -68.63, 107.83 109.48 3.24 2
3 03/15/2014 17:35:26 68.46, -84.56 70.35 03/15/2014 17:34:13 68.46, -84.72 70.35 6.78 73
4 03/18/2014 08:11:03 68.70, 56.26 69.55 03/18/2014 08:11:42 68.71, 56.20 69.56 2.94 39
5 03/18/2014 09:01:45 -68.60,-136.29 110.57 03/18/2014 09:01:12 -68.60,-136.30 110.56 0.31 33
6 03/20/2014 23:37:27 -69.17, 4.06 111.02 03/20/2014 23:38:38 -69.03, 4.85 111.18 34.63 71
7 03/21/2014 00:28:04 68.67, 172.05 68.46 03/21/2014 00:28:09 68.69, 172.06 68.48 2.10 5
8 03/21/2014 01:18:45 -68.52, -20.43 111.71 03/21/2014 01:17:40 -68.53, -20.50 111.69 2.86 65
9 03/23/2014 15:54:21 -68.73, 120.42 112.53 03/23/2014 15:55:12 -68.75, 120.37 112.52 2.37 51
10 03/23/2014 16:45:05 68.61, -72.11 67.34 03/23/2014 16:44:39 68.62, -72.14 67.35 1.42 26
11 03/23/2014 17:35:31 -67.66, 96.43 113.65 03/23/2014 17:34:23 -67.75, 94.45 113.52 83.79 68
12 03/26/2014 07:20:54 69.54, 67.73 67.26 03/26/2014 07:22:02 69.39, 69.45 67.08 68.85 68
13 03/26/2014 08:11:22 -68.69,-123.76
